Weather in Anamur

Turkey     36°03′24″N   32°51′00″E
temp.,
°C
wind,
m/s
gust,
m/s
humid.,
%
clouds,
%
prec.,
mm/h
press.,
hPa
HPBL,
m
13 june, sun
sun1300:00+21wnw78690 0.0 1011313
03:00+21wnw68680 0.0 1011299
06:00+21wnw45660 0.0 1011246
09:00+23sse12630 0.0 1012411
12:00+24s32660 0.0 1012588
15:00+24sw44610 0.0 1011544
18:00+24w55700 0.0 1010414
21:00+22w67830 0.0 1010288
14 june, mon
mon1400:00+21w67780 0.0 1009341
03:00+21w67750 0.0 1008360
06:00+21w55750 0.0 1008378
09:00+23wsw44680 0.0 1009683
12:00+24wsw55640 0.0 1010656
15:00+24wsw66660 0.0 1009682
18:00+23w78740 0.0 1008740
21:00+21w67800 0.0 1009457
15 june, tue
tue1500:00+21w56800 0.0 1009403
03:00+21w56781 0.0 1009689
06:00+21w44755 0.0 1010605
09:00+22wsw446838 0.0 10111002
12:00+23sw66698 0.1 1011777
15:00+24wsw88680 0.1 1010821
18:00+23w910700 0.0 1009760
21:00+21w79730 0.0 1010581
16 june, wed
wed1600:00+20w78730 0.0 1010507
03:00+20wnw67710 0.0 1010496
06:00+20w55670 0.0 1011525
09:00+22wsw44610 0.0 1011779
12:00+23sw65650 0.0 1012814
15:00+24wsw66673 0.0 10111044
18:00+23w910714 0.1 10111041
21:00+21w79750 0.1 1012737
17 june, thu
thu1700:00+20wnw55730 0.0 1012453
03:00+20wnw45690 0.0 1012338
06:00+20nw22570 0.0 1013223
09:00+23wsw22530 0.0 1013453
12:00+24wsw54590 0.0 1014601
15:00+24wsw66590 0.0 1013561
18:00+24w77600 0.0 1013413
21:00+23wnw89680 0.0 1013272